Monarch Pass, CO

11:42 PM MDT on August 18, 2017 (GMT -0600)
Monarch Pass

Weather History for KMYP - December, 2012

Change the Weather History Date:

Saturday, December 1, 2012

  Actual Average (KALS) Record (KALS)
Temperature  
Mean Temperature 28 °F -  
Max Temperature 33 °F 39 °F 56 °F (1973)
Min Temperature 23 °F 4 °F -17 °F (1987)
Degree Days  
Heating Degree Days 37    
Moisture  
Dew Point 17 °F    
Average Humidity 65    
Maximum Humidity 86    
Minimum Humidity 48    
Precipitation  
Precipitation 0.00 in - - ()
Sea Level Pressure  
Sea Level Pressure 30.34 in    
Wind  
Wind Speed 36 mph (WSW)    
Max Wind Speed 46 mph    
Max Gust Speed 55 mph    
Averages and records for this station are not official NWS values.
T = Trace of Precipitation, MM = Missing Value Source: NWS Daily Summary

Daily Weather History Graph

Daily Weather History Graph

Search for Another Location

Airport or City:

Trip Planner

Search our weather history database for the weather conditions in past years. The results will help you decide how hot, cold, wet, or windy it might be!

Date:

Astronomy

Dec. 01, 2012 Rise Set
Actual Time 7:03 AM MST 4:44 PM MST
Civil Twilight 6:34 AM MST 5:13 PM MST
Nautical Twilight 6:01 AM MST 5:46 PM MST
Astronomical Twilight 5:29 AM MST 6:18 PM MST
Moon 7:36 PM MST (12/1) 9:18 AM MST (12/1)
Length of Visible Light 10h 39m
Length of Day
9h 41m
Waning Gibbous, 91% of the Moon is Illuminated
Dec 1
Waning Gibbous
Dec 6
Last Quarter
Dec 13
New
Dec 19
First Quarter
Dec 28
Full

Hourly Weather History & Observations

Time (MST) Temp. Windchill Dew Point Humidity Pressure Visibility Wind Dir Wind Speed Gust Speed Precip Events Conditions
12:15 AM 28.4 °F 10.8 °F 19.4 °F 69% 30.29 in - West 40.3 mph 51.8 mph N/A   Scattered Clouds
12:35 AM 28.4 °F 10.6 °F 19.4 °F 69% 30.28 in - West 41.4 mph 52.9 mph N/A   Scattered Clouds
1:15 AM 28.4 °F 10.6 °F 17.6 °F 64% 30.27 in - West 41.4 mph 47.2 mph N/A   Clear
2:15 AM 28.4 °F 11.6 °F 17.6 °F 64% 30.28 in - West 35.7 mph 44.9 mph N/A   Scattered Clouds
2:35 AM 28.4 °F 11.0 °F 17.6 °F 64% 30.28 in - West 39.1 mph 47.2 mph N/A   Mostly Cloudy
2:55 AM 28.4 °F 10.8 °F 15.8 °F 59% 30.28 in - West 40.3 mph 50.6 mph N/A   Mostly Cloudy
3:15 AM 26.6 °F 7.9 °F 15.8 °F 64% 30.28 in - West 42.6 mph 55.2 mph N/A   Mostly Cloudy
3:35 AM 26.6 °F 8.3 °F 17.6 °F 69% 30.28 in - West 40.3 mph 49.5 mph N/A   Scattered Clouds
4:15 AM 24.8 °F 6.6 °F 17.6 °F 74% 30.27 in - West 35.7 mph 42.6 mph N/A   Scattered Clouds
5:15 AM 24.8 °F 5.1 °F 19.4 °F 80% 30.28 in - West 43.7 mph 51.8 mph N/A   Overcast
5:35 AM 24.8 °F - 17.6 °F 74% 30.28 in - North - - N/A   Overcast
6:15 AM 23.0 °F - 19.4 °F 86% 30.28 in - North - - N/A   Clear
6:35 AM 23.0 °F - 19.4 °F 86% 30.29 in - North - - N/A   Mostly Cloudy
7:15 AM 23.0 °F 2.2 °F 19.4 °F 86% 30.28 in - West 46.0 mph - N/A   Scattered Clouds
7:35 AM 23.0 °F - 19.4 °F 86% 30.30 in - North - - N/A   Overcast
7:55 AM 23.0 °F 2.4 °F 19.4 °F 86% 30.30 in - West 44.9 mph - N/A   Overcast
8:15 AM 24.8 °F 5.5 °F 19.4 °F 80% 30.31 in - West 41.4 mph - N/A   Overcast
8:35 AM 24.8 °F 5.5 °F 21.2 °F 86% 30.31 in - West 41.4 mph - N/A   Overcast
8:55 AM 24.8 °F - 21.2 °F 86% 30.30 in - North - - N/A   Overcast
9:15 AM 24.8 °F 4.9 °F 21.2 °F 86% 30.31 in - West 44.9 mph 52.9 mph N/A   Mostly Cloudy
9:35 AM 24.8 °F 5.5 °F 21.2 °F 86% 30.33 in - West 41.4 mph 48.3 mph N/A   Unknown
9:55 AM 26.6 °F 8.9 °F 21.2 °F 80% 30.34 in - West 36.8 mph 46.0 mph N/A   Scattered Clouds
10:15 AM 28.4 °F 12.5 °F 21.2 °F 74% 30.34 in - WSW 31.1 mph 41.4 mph N/A   Scattered Clouds
10:35 AM 28.4 °F 11.8 °F 21.2 °F 74% 30.35 in - WSW 34.5 mph 40.3 mph N/A   Scattered Clouds
11:15 AM 30.2 °F 14.1 °F 21.2 °F 69% 30.35 in - WSW 35.7 mph 43.7 mph N/A   Scattered Clouds
11:35 AM 30.2 °F 14.9 °F 21.2 °F 69% 30.35 in - SW 31.1 mph 47.2 mph N/A   Scattered Clouds
11:55 AM 32.0 °F 16.7 °F 21.2 °F 64% 30.35 in - WSW 34.5 mph 40.3 mph N/A   Clear
12:15 PM 32.0 °F 17.4 °F 21.2 °F 64% 30.34 in - SW 31.1 mph 40.3 mph N/A   Clear
12:35 PM 32.0 °F 17.0 °F 19.4 °F 60% 30.34 in - WSW 33.4 mph 44.9 mph N/A   Clear
12:55 PM 32.0 °F 17.4 °F 21.2 °F 64% 30.35 in - West 31.1 mph 41.4 mph N/A   Clear
1:15 PM 33.8 °F 20.1 °F 19.4 °F 56% 30.34 in - SW 29.9 mph 40.3 mph N/A   Clear
1:35 PM 32.0 °F 18.1 °F 19.4 °F 60% 30.34 in - WSW 27.6 mph 40.3 mph N/A   Clear
1:55 PM 33.8 °F 19.0 °F 19.4 °F 56% 30.34 in - West 35.7 mph 44.9 mph N/A   Clear
2:15 PM 32.0 °F 16.2 °F 19.4 °F 60% 30.34 in - West 38.0 mph 43.7 mph N/A   Clear
2:35 PM 32.0 °F 17.4 °F 19.4 °F 60% 30.35 in - West 31.1 mph 39.1 mph N/A   Clear
2:55 PM 32.0 °F 17.6 °F 17.6 °F 55% 30.35 in - WSW 29.9 mph 39.1 mph N/A   Clear
3:15 PM 32.0 °F 16.7 °F 17.6 °F 55% 30.35 in - West 34.5 mph 40.3 mph N/A   Clear
3:35 PM 32.0 °F 16.7 °F 15.8 °F 51% 30.36 in - West 34.5 mph 39.1 mph N/A   Clear
3:55 PM 32.0 °F 17.9 °F 15.8 °F 51% 30.36 in - West 28.8 mph 35.7 mph N/A   Clear
4:15 PM 32.0 °F 17.6 °F 14.0 °F 48% 30.37 in - West 29.9 mph - N/A   Clear
4:55 PM 30.2 °F 14.7 °F 14.0 °F 51% 30.37 in - West 32.2 mph 39.1 mph N/A   Clear
5:15 PM 30.2 °F 14.3 °F 14.0 °F 51% 30.36 in - West 34.5 mph - N/A   Clear
5:35 PM 30.2 °F 14.1 °F 14.0 °F 51% 30.36 in - West 35.7 mph 40.3 mph N/A   Clear
5:55 PM 28.4 °F 13.5 °F 14.0 °F 55% 30.37 in - WSW 26.5 mph 34.5 mph N/A   Clear
6:15 PM 28.4 °F 12.5 °F 14.0 °F 55% 30.37 in - WSW 31.1 mph - N/A   Clear
6:35 PM 28.4 °F 13.0 °F 14.0 °F 55% 30.37 in - WSW 28.8 mph 35.7 mph N/A   Clear
6:55 PM 28.4 °F 12.5 °F 14.0 °F 55% 30.38 in - WSW 31.1 mph - N/A   Clear
7:15 PM 28.4 °F 13.3 °F 14.0 °F 55% 30.39 in - WSW 27.6 mph - N/A   Clear
7:35 PM 28.4 °F 13.0 °F 14.0 °F 55% 30.39 in - WSW 28.8 mph - N/A   Clear
7:55 PM 28.4 °F 13.3 °F 12.2 °F 51% 30.38 in - West 27.6 mph - N/A   Clear
8:15 PM 28.4 °F 14.1 °F 12.2 °F 51% 30.38 in - West 24.2 mph - N/A   Clear
8:35 PM 28.4 °F 14.1 °F 12.2 °F 51% 30.38 in - WSW 24.2 mph - N/A   Clear
8:55 PM 28.4 °F 13.3 °F 14.0 °F 55% 30.38 in - WSW 27.6 mph - N/A   Clear
9:15 PM 28.4 °F 13.0 °F 14.0 °F 55% 30.38 in - WSW 28.8 mph - N/A   Clear
9:35 PM 26.6 °F 11.1 °F 14.0 °F 59% 30.39 in - WSW 26.5 mph 33.4 mph N/A   Clear
9:55 PM 26.6 °F 10.8 °F 15.8 °F 64% 30.39 in - WSW 27.6 mph - N/A   Clear
10:15 PM 26.6 °F 11.1 °F 15.8 °F 64% 30.39 in - WSW 26.5 mph - N/A   Clear
10:35 PM 26.6 °F 10.6 °F 15.8 °F 64% 30.39 in - West 28.8 mph - N/A   Clear
10:55 PM 26.6 °F 10.6 °F 15.8 °F 64% 30.39 in - West 28.8 mph - N/A   Clear
11:15 PM 26.6 °F 10.8 °F 15.8 °F 64% 30.39 in - WSW 27.6 mph - N/A   Clear
11:35 PM 26.6 °F 10.6 °F 15.8 °F 64% 30.38 in - West 28.8 mph - N/A   Clear
11:55 PM 26.6 °F 10.8 °F 15.8 °F 64% 30.38 in - WSW 27.6 mph - N/A   Clear